Globalstar M065

operational
NORAD ID: 31571 Int'l Des: 2007-020 Owner: GLOB Country: US Constellation: globalstar
LEOCIRCULAR

Globalstar M065について

説明を読み込み中...

リアルタイム位置

3D地球を読み込み中...

次回通過

高度履歴

Altitude vs Time

uPlot chart will show altitude changes over time

軌道要素

1 31571U 07020A 26063.23060778 -.00000116 00000-0 -69588-4 0 9996
2 31571 51.9891 154.7661 0010339 161.5396 221.4423 12.62020954866244
Epoch: Mar 4, 2026 • Age: 18 hours

現在のステータス

高度 1410.4 km
速度 7.16 km/s
衛星直下点 35.97°N, 126.33°W
打ち上げ日 May 29, 2007
運用期間 18.7 years
タイプ communications

技術仕様

分類 Payload
質量 450.00 kg
乾燥質量 380.00 kg
総質量 450.00 kg
長さ 1.50 m
直径 0.60 m
スパン 12.00 m
形状 Box + 2 Pan
製造者 LOR
バスタイプ LS-400
フェーズステータス In Orbit
所有者/国 GLOB/US

大規模コンステレーション

Loading constellations...